Hillsdale, MI

5:05 AM EDT on June 23, 2017 (GMT -0400)
Hillsdale Municipal

Weather History for KJYM - November, 2011

Change the Weather History Date:

Wednesday, November 9, 2011

  Actual Average Record
Temperature  
Mean Temperature 50 °F -  
Max Temperature 62 °F 50 °F 71 °F (1999)
Min Temperature 39 °F 32 °F 8 °F (1991)
Degree Days  
Heating Degree Days 14    
Moisture  
Dew Point 49 °F    
Average Humidity 82    
Maximum Humidity 100    
Minimum Humidity 55    
Precipitation  
Precipitation 0.00 in - - ()
Sea Level Pressure  
Sea Level Pressure 29.77 in    
Wind  
Wind Speed 11 mph (South)    
Max Wind Speed 30 mph    
Max Gust Speed 47 mph    
Visibility 9 miles    
Events Rain    
Averages and records for this station are not official NWS values.
T = Trace of Precipitation, MM = Missing Value Source: NWS Daily Summary

Daily Weather History Graph

Daily Weather History Graph

Search for Another Location

Airport or City:

Trip Planner

Search our weather history database for the weather conditions in past years. The results will help you decide how hot, cold, wet, or windy it might be!

Date:

Astronomy

Nov. 09, 2011 Rise Set
Actual Time 7:20 AM EST 5:23 PM EST
Civil Twilight 6:50 AM EST 5:52 PM EST
Nautical Twilight 6:17 AM EST 6:26 PM EST
Astronomical Twilight 5:44 AM EST 6:59 PM EST
Moon 4:34 PM EST (11/9) 6:15 AM EST (11/9)
Length of Visible Light 11h 02m
Length of Day
10h 03m
Waxing Gibbous, 99% of the Moon is Illuminated
Nov 9
Waxing Gibbous
Nov 10
Full
Nov 18
Last Quarter
Nov 25
New
Dec 2
First Quarter

Hourly Weather History & Observations

Time (EST) Temp. Windchill Dew Point Humidity Pressure Visibility Wind Dir Wind Speed Gust Speed Precip Events Conditions
12:14 AM 60.8 °F - 51.8 °F 72% 29.96 in 10.0 mi SSE 5.8 mph - N/A   Overcast
12:35 AM 60.8 °F - 51.8 °F 72% 29.95 in 10.0 mi SSE 6.9 mph - N/A   Overcast
12:55 AM 60.8 °F - 51.8 °F 72% 29.95 in 10.0 mi SSE 6.9 mph - N/A   Overcast
1:15 AM 60.8 °F - 51.8 °F 72% 29.95 in 10.0 mi SSE 6.9 mph - N/A   Overcast
1:35 AM 60.8 °F - 51.8 °F 72% 29.94 in 10.0 mi SSE 5.8 mph - N/A   Overcast
1:55 AM 59.0 °F - 51.8 °F 77% 29.93 in 10.0 mi SSE 5.8 mph - N/A   Overcast
2:14 AM 59.0 °F - 51.8 °F 77% 29.93 in 10.0 mi SSE 8.1 mph - N/A   Overcast
2:35 AM 59.0 °F - 51.8 °F 77% 29.92 in 10.0 mi SSE 8.1 mph - N/A   Overcast
2:55 AM 59.0 °F - 50.0 °F 72% 29.92 in 10.0 mi SSE 6.9 mph - N/A   Overcast
3:14 AM 59.0 °F - 51.8 °F 77% 29.91 in 10.0 mi SSE 6.9 mph - N/A Rain Light Rain
3:35 AM 59.0 °F - 50.0 °F 72% 29.90 in 10.0 mi SE 10.4 mph - N/A   Overcast
3:55 AM 59.0 °F - 50.0 °F 72% 29.90 in 10.0 mi South 6.9 mph - N/A   Overcast
4:14 AM 60.8 °F - 50.0 °F 68% 29.89 in 10.0 mi South 8.1 mph - N/A   Overcast
4:35 AM 59.0 °F - 51.8 °F 77% 29.88 in 10.0 mi South 11.5 mph - N/A   Scattered Clouds
4:55 AM 57.2 °F - 53.6 °F 88% 29.87 in 10.0 mi South 8.1 mph - N/A   Drizzle
5:14 AM 57.2 °F - 53.6 °F 88% 29.88 in 7.0 mi South 9.2 mph - N/A Rain Rain
5:35 AM 55.4 °F - 53.6 °F 94% 29.88 in 5.0 mi South 6.9 mph - N/A Rain Rain
5:54 AM 55.4 °F - 53.6 °F 94% 29.87 in 4.0 mi South 9.2 mph - N/A Rain Heavy Rain
6:15 AM 55.4 °F - 53.6 °F 94% 29.86 in 7.0 mi SSE 8.1 mph - N/A Rain Light Rain
6:35 AM 55.4 °F - 53.6 °F 94% 29.84 in 7.0 mi SE 6.9 mph - N/A Rain Rain
6:54 AM 55.4 °F - 53.6 °F 94% 29.84 in 7.0 mi SE 9.2 mph - N/A Rain Rain
7:15 AM 53.6 °F - 53.6 °F 100% 29.82 in 7.0 mi SE 8.1 mph - N/A   Overcast
7:35 AM 53.6 °F - 53.6 °F 100% 29.82 in 7.0 mi SE 9.2 mph - N/A   Overcast
7:54 AM 53.6 °F - 53.6 °F 100% 29.80 in 7.0 mi SE 9.2 mph - N/A   Overcast
8:15 AM 55.4 °F - 53.6 °F 94% 29.80 in 10.0 mi SSE 9.2 mph - N/A Rain Light Rain
8:35 AM 55.4 °F - 51.8 °F 88% 29.78 in 7.0 mi SE 11.5 mph 16.1 mph N/A Rain Rain
9:15 AM 55.4 °F - 53.6 °F 94% 29.74 in 10.0 mi SE 15.0 mph 20.7 mph N/A   Overcast
9:34 AM 55.4 °F - 53.6 °F 94% 29.71 in 7.0 mi SE 12.7 mph 18.4 mph N/A Rain Light Rain
9:54 AM 55.4 °F - 53.6 °F 94% 29.72 in 4.0 mi SSE 12.7 mph 20.7 mph N/A Rain Heavy Rain
10:15 AM 55.4 °F - 53.6 °F 94% 29.72 in 2.0 mi SSE 11.5 mph - N/A Rain Heavy Rain
10:35 AM 55.4 °F - 53.6 °F 94% 29.71 in 5.0 mi SSE 15.0 mph 20.7 mph N/A Rain Light Rain
10:55 AM 55.4 °F - 55.4 °F 100% 29.71 in 2.5 mi South 17.3 mph 25.3 mph N/A Rain Rain
11:34 AM 57.2 °F - 55.4 °F 94% 29.69 in 5.0 mi South 15.0 mph 27.6 mph N/A Rain Light Rain
11:55 AM 57.2 °F - 55.4 °F 94% 29.67 in 10.0 mi South 15.0 mph 26.5 mph N/A   Overcast
12:15 PM 57.2 °F - 55.4 °F 94% 29.65 in 10.0 mi South 17.3 mph 23.0 mph N/A   Overcast
12:34 PM 59.0 °F - 55.4 °F 88% 29.63 in 10.0 mi South 15.0 mph 25.3 mph N/A   Overcast
12:55 PM 59.0 °F - 55.4 °F 88% 29.62 in 10.0 mi South 16.1 mph 24.2 mph N/A   Overcast
1:15 PM 60.8 °F - 55.4 °F 82% 29.61 in 10.0 mi South 17.3 mph 25.3 mph N/A   Overcast
1:34 PM 60.8 °F - 55.4 °F 82% 29.59 in 10.0 mi South 18.4 mph 25.3 mph N/A   Overcast
2:15 PM 62.6 °F - 53.6 °F 72% 29.59 in 10.0 mi SSW 18.4 mph 25.3 mph N/A   Mostly Cloudy
2:34 PM 60.8 °F - 50.0 °F 68% 29.60 in 10.0 mi SW 25.3 mph 39.1 mph N/A   Mostly Cloudy
2:55 PM 60.8 °F - 44.6 °F 55% 29.60 in 10.0 mi SSW 18.4 mph 39.1 mph N/A   Scattered Clouds
3:15 PM 60.8 °F - 44.6 °F 55% 29.61 in 10.0 mi SSW 19.6 mph 27.6 mph N/A   Clear
3:34 PM 57.2 °F - 44.6 °F 63% 29.61 in 10.0 mi SSW 16.1 mph 27.6 mph N/A   Mostly Cloudy
3:55 PM 55.4 °F - 44.6 °F 67% 29.64 in 10.0 mi SSW 29.9 mph 47.2 mph N/A   Overcast
4:14 PM 51.8 °F - 42.8 °F 71% 29.65 in 10.0 mi SW 21.9 mph 36.8 mph N/A   Overcast
4:34 PM 50.0 °F - 42.8 °F 76% 29.66 in 10.0 mi SW 17.3 mph 29.9 mph N/A   Overcast
4:55 PM 48.2 °F - 39.2 °F 71% 29.66 in 10.0 mi SSW 18.4 mph 33.4 mph N/A   Overcast
5:15 PM 46.4 °F 38.1 °F 39.2 °F 76% 29.68 in 10.0 mi SW 24.2 mph 35.7 mph N/A   Overcast
5:35 PM 44.6 °F 37.2 °F 37.4 °F 76% 29.69 in 10.0 mi SW 17.3 mph 35.7 mph N/A   Overcast
6:14 PM 42.8 °F 33.5 °F 37.4 °F 81% 29.71 in 7.0 mi SSW 23.0 mph 33.4 mph N/A Rain Light Rain
6:55 PM 41.0 °F 32.5 °F 35.6 °F 81% 29.74 in 10.0 mi SW 17.3 mph 29.9 mph N/A Rain Light Rain
7:14 PM 39.2 °F 30.8 °F 35.6 °F 87% 29.75 in 10.0 mi SW 15.0 mph 31.1 mph N/A   Overcast
7:35 PM 39.2 °F 28.7 °F 35.6 °F 87% 29.76 in 10.0 mi SW 23.0 mph 33.4 mph N/A   Overcast
8:14 PM 39.2 °F 30.8 °F 35.6 °F 87% 29.78 in 7.0 mi WSW 15.0 mph 24.2 mph N/A   Overcast
8:35 PM 39.2 °F 30.2 °F 35.6 °F 87% 29.79 in 7.0 mi WSW 17.3 mph 27.6 mph N/A Rain Light Rain
9:14 PM 39.2 °F 30.2 °F 35.6 °F 87% 29.81 in 10.0 mi West 17.3 mph 27.6 mph N/A   Overcast
9:35 PM 39.2 °F 29.8 °F 33.8 °F 81% 29.82 in 10.0 mi West 18.4 mph 28.8 mph N/A   Overcast
9:54 PM 39.2 °F 29.8 °F 33.8 °F 81% 29.83 in 10.0 mi WSW 18.4 mph 29.9 mph N/A   Overcast
10:14 PM 39.2 °F 30.5 °F 33.8 °F 81% 29.84 in 10.0 mi West 16.1 mph 26.5 mph N/A   Overcast
10:35 PM 39.2 °F 30.8 °F 35.6 °F 87% 29.85 in 10.0 mi West 15.0 mph 26.5 mph N/A Rain Light Rain
10:54 PM 39.2 °F 30.8 °F 35.6 °F 87% 29.86 in 10.0 mi West 15.0 mph 24.2 mph N/A Rain Light Rain
11:15 PM 39.2 °F 31.2 °F 35.6 °F 87% 29.87 in 10.0 mi West 13.8 mph 21.9 mph N/A Rain Light Rain
11:34 PM 39.2 °F 30.5 °F 35.6 °F 87% 29.87 in 10.0 mi West 16.1 mph 27.6 mph N/A Rain Light Rain
11:54 PM 39.2 °F 31.6 °F 35.6 °F 87% 29.88 in 10.0 mi West 12.7 mph 19.6 mph N/A   Overcast